Location: São Paulo
(23.5507°S, 46.6334°W)
Time: 19:09:46
(UTC-03:00)

Vanguard 2 Rocket - Pass Details

Date: 22 February 2026
Orbit: 553 x 3286 km, 32.9° (Epoch: 11 March)

Event Time Altitude Azimuth Distance (km) Brightness Sun altitude
Exits shadow 03:32:19 37° 216° (SW) 1,777 8.2 -32.2°
Maximum altitude 03:35:10 55° 161° (SSE) 1,642 8.2 -31.6°
Drops below altitude 10° 03:46:51 10° 85° (E) 4,722 11.2 -29.3°
Sets 03:51:44 0° 81° (E) 6,167 11.9 -28.3°
